Torna al catalogo

FENGYUN 4A

AttivoMeteoGEO
NORAD 41882·PAYLOAD·🇨🇳 China

Lanciato Dec 10, 2016 da Xichang Satellite Launch Center

Loading…

TLE

AggiornatoSource: Space-Track

Epoca: Sep 14, 2026, 21:13 UTC

1 41882U 16077A   26257.88464725 -.00000365  00000-0  00000-0 0  9995
2 41882   2.5444  79.1446 0008023 166.8208 189.5118  1.00267825 35821

Traccia FENGYUN 4A in tempo reale con AllMySat

Download on the App Store